CALSPHERE 1 1 00900U 64063C 26257.48799447 .00000447 00000+0 44475-3 0 9993 2 00900 90.2176 73.8381 0026728 26.2035 2.7230 13.76703763 83715 CALSPHERE 2 1 00902U 64063E 26257.52172433 .00000015 00000+0 93195-5 0 9996 2 00902 90.2290 77.8960 0017665 333.6473 87.0278 13.52906314868341 LCS 1 1 01361U 65034C 26257.53708561 .00000017 00000+0 11195-2 0 9992 2 01361 32.1454 324.8830 0011205 78.9990 281.1767 9.89310720218733 TEMPSAT 1 1 01512U 65065E 26257.36603649 .00000028 00000+0 38830-4 0 9995 2 01512 90.0058 212.6109 0069841 359.9159 153.8627 13.33598354971938 CALSPHERE 4A 1 01520U 65065H 26257.62277631 .00000071 00000+0 11837-3 0 9996 2 01520 89.8903 121.5865 0068563 210.1031 180.2221 13.36291031974657 OPS 5712 (P/L 160) 1 02826U 67053A 26257.57168384 .00005644 00000+0 77800-3 0 9996 2 02826 69.9167 179.0276 0004066 271.7401 88.3282 14.78714414 79444 OPS 5712 (P/L 153) 1 02874U 67053H 26257.49133256 .00000001 00000+0 38946-4 0 9991 2 02874 69.9724 283.8883 0004561 72.2819 287.8785 13.96839064 19267 RIGIDSPHERE 2 (LCS 4) 1 05398U 71067E 26257.61455993 .00000418 00000+0 13025-3 0 9996 2 05398 87.6213 313.9896 0057594 297.0262 62.5065 14.37955941886735 COSMOS 2493 (SKRL-756 1) 1 39490U 13078A 26257.60062767 .00002192 00000+0 16269-3 0 9990 2 39490 82.4155 173.6941 0011567 307.0871 52.9296 15.02555583691388 COSMOS 2494 (SKRL-756 2) 1 39491U 13078B 26257.56905898 .00002178 00000+0 14997-3 0 9997 2 39491 82.4151 162.7399 0014432 260.3492 99.6105 15.05324484692256